EHI
0 0 0 0 0 0 0 0 0 0 0 0 0 0 1 2 2 1 0 0 0 1 2 3 2 1 0 0 0 0 0 0 0 0 0 1 1 1 0 0 0 0 0 0
0 0 0 0 0 0 0 0 0 0 0 0 0 0 0 1 1 1 1 1 1 0 1 2 2 1 0 0 0 0 0 0 0 0 0 1 2 2 1 0 0 0 0 0
0 0 0 0 0 0 0 0 0 0 0 0 0 0 0 0 0 0 1 1 1 0 1 2 2 1 0 0 0 0 0 0 0 0 0 1 3 3 2 0 0 0 0 0
0 0 0 0 0 0 0 0 0 0 0 0 0 0 0 0 0 0 0 1 1 0 0 1 2 1 0 0 0 0 0 0 0 0 1 1 2 2 1 0 0 0 0 0
0 0 0 0 0 0 0 0 0 0 0 0 0 0 0 0 0 0 0 0 0 0 0 0 0 0 0 0 0 0 0 0 0 1 2 3 3 2 1 1 1 1 0 0
0 0 0 0 0 0 0 0 0 0 0 0 0 0 0 0 0 0 0 0 0 0 0 0 0 0 0 0 0 0 0 0 0 1 2 3 3 3 2 2 2 1 0 0
0 0 0 0 0 0 0 0 0 0 0 0 0 0 0 0 0 0 0 0 0 0 0 0 0 0 0 0 0 0 0 0 0 1 2 3 3 3 3 3 3 1 0 0
0 0 0 0 0 0 0 0 0 0 0 0 0 0 0 0 0 0 0 0 0 0 0 0 0 0 0 0 0 0 0 0 0 1 2 3 3 3 3 3 2 1 0 0
0 0 0 0 0 0 0 0 0 0 0 0 0 0 0 0 0 0 0 0 0 0 0 0 0 0 0 0 0 0 0 0 0 0 1 3 3 3 3 2 1 0 0 0
0 0 0 0 0 0 0 0 0 0 0 0 0 0 0 0 0 0 0 0 0 0 0 0 0 0 0 0 0 0 0 0 0 0 1 2 2 2 1 1 2 1 0 0
0 0 0 0 0 0 0 0 0 0 0 0 0 0 0 0 0 0 0 0 0 0 0 0 0 0 0 0 0 0 0 0 0 0 0 1 1 1 0 1 2 1 0 0
0 0 0 0 0 0 0 0 0 0 0 0 0 0 0 0 0 0 0 1 0 0 1 0 0 0 0 0 0 0 0 0 0 0 0 0 0 0 0 0 1 1 0 0
0 0 0 0 0 0 0 0 0 0 0 0 0 0 0 0 0 0 0 0 0 0 0 0 0 0 0 0 0 0 0 0 0 0 0 0 0 0 0 0 0 0 0 0
0 0 0 0 0 0 0 0 0 0 0 0 0 0 0 0 1 0 0 0 0 0 0 0 0 0 0 0 0 0 0 0 0 0 0 0 0 0 0 0 0 0 0 0
0 0 0 0 0 0 0 0 0 0 0 0 0 0 0 0 1 1 0 0 0 0 0 0 0 0 0 0 0 0 0 0 0 0 0 0 0 0 0 0 0 0 0 0
0 0 0 0 0 0 0 0 0 0 0 0 0 0 0 0 1 1 1 0 0 0 0 0 0 0 0 0 0 0 0 0 0 0 0 0 0 0 0 0 0 0 0 0
0 0 0 0 0 0 0 0 0 0 0 0 0 0 0 1 2 2 1 0 0 0 0 0 0 0 0 0 0 0 0 0 0 0 0 0 0 0 0 0 0 0 0 0
0 0 0 0 0 0 0 0 0 0 0 0 0 0 0 1 2 3 2 1 0 0 0 0 0 0 0 0 0 0 0 0 0 0 0 0 0 0 0 0 0 0 0 0
0 0 0 0 0 0 0 0 0 0 0 0 0 0 0 0 1 2 2 1 0 0 0 0 0 0 0 0 0 0 0 0 0 0 0 0 0 0 0 0 0 0 0 0
0 0 0 0 0 0 0 0 0 0 0 0 0 0 0 0 0 1 1 1 0 0 0 0 0 0 0 0 0 0 0 0 0 0 0 0 0 0 0 0 0 0 0 0
0 0 0 0 0 0 0 0 0 0 0 0 0 0 0 0 0 0 0 0 0 0 0 0 0 0 0 0 0 0 0 0 0 0 0 0 0 0 0 0 0 0 0 0
0 0 0 0 0 0 0 0 0 0 0 0 0 0 0 0 0 0 0 0 0 0 0 0 0 0 0 0 0 0 0 0 0 0 0 0 0 0 0 0 0 0 0 0
0 0 0 0 0 0 0 0 0 0 0 0 0 0 0 0 0 0 0 0 0 0 0 0 0 0 0 0 0 0 0 0 0 0 0 0 0 0 0 0 0 0 0 0
0 0 0 0 0 0 0 0 0 0 0 0 0 0 0 0 0 0 0 0 0 0 0 0 0 0 0 0 0 0 0 0 0 0 0 0 0 0 0 0 0 0 0 0
0 0 0 0 0 0 0 0 0 0 0 0 0 0 0 0 0 0 0 0 0 0 0 0 0 0 0 0 0 0 0 0 0 0 0 0 0 0 0 0 0 0 0 0
0 0 0 0 0 0 0 0 0 0 0 0 0 0 0 0 0 0 0 0 0 0 0 0 0 0 0 0 0 0 0 0 0 0 0 0 0 0 0 0 0 0 0 0
0 0 0 0 0 0 0 0 0 0 0 0 0 0 0 0 0 0 0 0 0 0 0 0 0 0 0 0 0 0 0 0 0 0 0 0 0 0 0 0 0 0 0 0
Wind_Speed
7 5 6 8 9 11 13 11 10 7 7 5 3 3 3 4 5 6 6 7 8 8 8 9 9 9 9 9 9 9 9 9 8 7 7 6 6 5 5 5 5 5 5 4
8 7 8 10 11 11 12 12 11 10 9 4 3 3 3 4 5 6 6 7 7 8 8 9 9 9 9 9 9 9 9 9 7 7 7 6 6 6 6 5 5 5 5 4
8 7 8 11 11 12 12 11 11 11 7 4 4 4 4 5 6 6 6 6 7 7 7 8 8 9 10 10 9 9 9 9 8 8 8 7 7 6 6 6 5 5 5 4
6 6 10 4 3 7 10 10 10 9 6 6 5 4 4 4 5 5 6 6 6 6 6 6 7 8 9 9 9 9 9 9 8 8 8 7 7 7 6 6 5 5 5 5
6 7 8 5 6 7 8 8 8 9 7 5 4 5 5 4 4 4 5 5 6 6 6 6 7 8 9 9 9 9 9 8 9 8 8 8 8 7 6 6 5 5 5 5
7 8 7 3 4 5 7 8 7 8 7 6 6 6 4 4 4 4 3 4 4 5 5 6 7 9 10 9 9 9 8 8 8 8 8 8 8 7 6 6 5 5 4 4
9 8 7 2 3 7 8 3 5 8 8 8 7 3 3 5 5 4 4 4 5 5 5 5 7 9 9 9 9 8 7 7 7 7 7 7 7 6 6 6 6 5 5 4
8 9 6 5 7 7 2 0 4 7 7 7 5 3 4 5 5 5 5 5 5 5 4 5 7 8 9 8 8 7 7 7 7 7 7 6 7 7 7 7 6 6 5 4
6 4 1 4 5 3 3 3 3 5 6 6 6 5 6 6 5 5 5 5 5 5 5 5 6 7 8 7 7 7 8 8 7 7 7 7 7 7 7 6 5 5 4 4
7 6 5 5 5 5 4 4 3 4 5 6 6 6 6 6 6 5 5 5 5 5 5 6 6 6 6 7 7 8 8 8 7 8 7 7 5 6 6 6 5 5 5 4
8 5 5 5 5 4 4 4 3 3 4 6 6 6 6 6 6 5 5 5 5 5 5 6 6 5 5 6 8 8 8 8 7 7 7 6 5 3 4 4 3 4 5 5
6 5 5 4 3 4 4 4 5 5 4 5 6 6 6 6 5 6 5 5 5 5 5 5 6 6 6 6 8 8 8 7 6 6 6 5 6 5 4 3 5 4 2 2
6 6 5 5 4 4 4 4 4 5 5 5 5 6 6 6 5 6 6 6 6 6 6 6 6 6 6 6 7 8 7 7 6 6 6 6 6 6 5 5 5 5 5 4
5 4 5 5 4 4 3 3 3 3 4 4 5 5 5 5 6 6 6 5 5 6 6 6 6 6 6 6 7 8 7 6 6 6 6 6 6 6 5 6 5 4 4 6
6 5 5 3 3 3 3 4 4 4 4 5 5 6 6 6 6 5 5 5 6 6 6 6 6 6 6 6 7 7 7 6 6 5 5 5 6 5 5 5 5 5 5 6
6 5 4 4 5 5 5 5 5 5 5 6 6 6 5 5 5 5 5 6 7 7 6 6 6 6 6 6 7 6 6 7 6 6 6 6 6 6 5 5 5 5 5 5
7 6 5 5 6 6 6 6 6 6 6 6 6 6 6 6 6 5 5 5 5 5 6 6 6 6 6 6 6 5 6 7 7 6 5 5 5 5 5 5 5 4 4 4
8 8 8 8 6 6 5 5 5 5 6 6 6 6 6 7 6 6 6 5 5 5 5 6 6 6 6 6 5 5 5 6 6 5 5 5 5 5 5 5 5 5 4 5
8 7 7 7 6 5 5 5 5 5 5 6 7 7 7 6 6 6 6 7 7 6 6 6 7 7 7 6 5 5 5 6 6 5 5 6 5 5 5 5 5 5 4 4
6 6 6 6 5 5 5 5 5 5 6 7 7 7 7 6 6 6 7 6 5 4 6 7 7 6 6 6 6 5 6 6 6 5 5 5 5 5 5 5 5 5 4 4
5 5 5 5 5 5 5 5 5 6 7 8 8 8 7 7 7 7 7 5 5 5 6 7 6 5 5 6 7 5 5 5 5 5 5 5 5 5 5 4 4 4 4 3
5 5 5 5 5 4 4 5 5 6 7 7 7 7 7 7 7 6 6 4 5 7 6 5 5 6 7 8 5 5 5 5 5 5 5 5 5 5 4 4 4 4 4 3
4 4 4 4 4 4 4 4 5 6 7 7 7 8 7 6 6 6 5 4 5 7 6 5 6 10 10 6 5 5 6 5 5 5 5 5 4 4 4 5 4 4 3 3
4 4 4 3 3 4 5 4 5 5 6 6 6 6 6 5 4 4 3 6 7 8 5 7 11 11 9 5 5 5 5 5 5 4 4 4 4 4 4 4 4 3 4 4
3 3 3 3 4 3 4 4 4 5 5 4 5 6 5 4 4 4 5 7 8 8 6 9 11 10 6 5 5 5 5 5 4 4 4 4 4 4 4 4 4 4 3 3
2 2 2 3 3 2 3 3 3 4 4 5 4 5 4 4 5 5 5 7 9 7 6 6 7 7 5 5 5 5 5 6 5 4 4 4 5 4 4 4 5 3 3 3
2 2 2 2 2 2 3 3 3 4 4 5 5 5 5 5 5 6 7 6 7 6 5 5 5 5 5 5 5 5 4 5 4 4 4 4 4 4 4 5 4 3 3 3
Wind_Direction
249 252 238 237 228 220 227 240 252 258 260 266 258 226 195 179 172 175 181 180 178 179 178 179 180 180 177 177 175 174 175 179 178 174 170 166 159 162 162 160 163 157 149 145
235 234 240 243 234 228 230 237 244 255 256 255 240 199 185 180 175 184 187 187 184 186 181 183 185 181 177 178 178 176 179 179 172 171 169 168 165 164 161 161 159 153 150 143
242 229 242 241 231 225 227 230 236 243 245 224 217 210 201 190 185 190 192 192 192 192 189 189 190 183 179 178 174 178 178 173 171 172 170 172 167 164 164 163 159 157 154 149
246 232 239 237 212 228 233 237 235 239 239 230 223 212 201 188 186 190 189 194 197 197 192 191 187 182 177 173 174 177 176 173 173 174 170 168 167 168 170 164 158 162 158 155
231 237 248 238 213 211 222 234 225 224 223 213 199 193 195 184 193 196 188 188 189 192 190 185 181 178 174 174 174 175 175 177 174 175 171 169 169 171 170 164 160 166 163 160
225 234 239 226 181 200 225 233 208 210 204 192 192 209 191 171 181 187 175 170 172 178 178 175 177 175 174 174 174 177 178 180 176 174 173 173 172 168 163 164 163 161 157 165
228 236 246 215 164 189 218 229 182 200 200 196 205 221 151 160 167 167 158 153 156 162 169 174 174 173 176 176 178 177 174 174 171 171 174 170 165 162 162 161 160 162 159 161
217 227 232 152 171 205 248 131 187 195 197 198 191 172 161 163 160 160 157 153 157 158 161 169 173 174 179 182 178 168 164 167 170 170 167 162 158 161 164 161 161 165 166 160
219 231 23 178 207 239 268 226 205 199 193 187 186 188 179 170 164 164 162 158 159 158 154 162 172 177 181 176 167 163 163 165 167 167 164 163 162 163 164 165 169 171 172 169
231 232 235 233 250 253 254 243 227 205 189 190 193 189 180 170 167 165 165 163 162 159 159 164 171 180 179 167 165 165 165 166 167 165 160 161 163 168 168 172 176 177 176 176
240 247 251 238 242 255 250 237 219 204 194 189 185 186 179 173 170 167 163 161 164 168 168 168 168 170 169 167 167 169 166 166 165 161 155 154 151 152 171 168 178 179 178 177
241 245 248 249 250 254 238 220 205 196 190 185 185 181 178 173 165 162 162 159 163 166 168 165 162 165 165 168 172 171 166 165 162 157 153 152 147 129 74 92 106 115 110 148
269 274 271 263 254 244 238 218 200 193 188 184 181 179 175 165 159 159 160 162 165 165 166 163 162 162 164 170 174 173 169 164 160 158 157 157 156 153 143 113 102 112 122 130
262 255 251 245 240 234 222 198 185 174 174 177 173 171 168 162 158 161 162 163 163 160 161 162 161 161 163 168 172 173 167 159 159 160 161 161 160 161 161 158 153 145 141 146
245 253 262 259 228 209 189 178 176 175 172 171 168 168 169 166 163 160 156 157 159 160 161 161 161 158 159 164 168 168 161 158 160 157 158 159 157 157 158 162 159 154 150 147
237 243 242 231 217 204 197 194 194 189 182 177 174 173 168 163 156 152 156 164 167 166 164 164 163 158 160 164 162 160 155 147 153 156 157 158 158 158 161 164 164 164 167 160
222 225 226 230 224 216 212 208 207 198 188 183 177 168 163 161 160 158 161 171 170 166 167 168 160 156 162 166 161 157 154 151 156 159 159 160 161 163 165 167 167 167 170 157
238 238 234 232 226 222 219 213 206 200 193 181 170 170 174 178 177 171 167 165 162 163 167 165 157 157 161 161 157 155 155 155 161 161 159 162 163 166 165 167 169 170 165 154
236 235 236 238 234 223 213 208 205 199 188 176 176 181 183 186 183 173 170 171 170 171 169 160 152 162 160 153 148 151 153 153 156 156 155 151 161 164 165 168 171 172 168 164
233 229 228 230 227 219 211 207 199 193 189 183 182 181 183 186 184 179 178 181 183 173 162 156 160 164 158 152 150 152 151 154 155 154 155 160 164 167 167 168 171 171 169 169
223 221 223 223 219 214 208 204 195 193 188 186 186 186 184 182 182 182 179 179 170 159 156 157 164 160 157 149 157 155 152 153 156 157 158 160 162 163 163 165 166 167 166 166
220 217 219 218 212 206 202 199 194 191 182 182 184 181 177 177 181 185 187 181 160 153 160 166 165 149 147 149 159 155 156 156 156 157 159 162 164 164 162 161 161 160 162 164
224 221 217 215 210 197 192 195 192 186 183 182 180 179 179 178 179 179 179 172 161 160 166 163 147 143 149 158 154 153 153 154 154 156 160 163 164 164 161 160 157 157 161 160
221 220 221 217 197 188 193 193 186 183 183 182 182 180 176 173 177 185 167 150 151 156 163 145 144 149 157 159 154 154 153 154 153 153 154 155 154 154 155 156 156 157 157 156
215 214 209 198 198 203 195 178 174 175 176 175 174 176 177 175 169 164 157 153 149 153 149 146 148 152 159 154 154 154 153 150 147 147 149 150 149 150 151 153 156 156 155 155
210 204 205 212 213 200 184 178 178 179 176 173 170 165 160 151 150 151 149 152 151 150 149 149 154 159 159 154 153 151 146 143 144 147 149 149 150 151 151 155 156 155 154 152
201 183 182 184 189 194 192 191 189 187 184 178 168 164 160 155 152 152 151 150 151 154 152 151 155 159 155 152 150 148 146 145 147 148 148 151 154 156 156 156 154 152 153 154